Location: Banios
(43.0451°N, 0.2335°E)
Time: 12:42:12
(UTC+00:00)

Courier 1B Rocket - All Passes

Search period start: 13 May 2021 00:00
Search period end: 23 May 2021 00:00
Orbit: 920 x 1202 km, 28.3° (Epoch: 12 May)

Date Brightness Start Highest point End Pass type
(mag) Time Alt. Az. Time Alt. Az. Time Alt. Az.
13 May - 08:47:33 10° S 08:50:04 12° SSE 08:52:32 10° SE daylight
13 May - 10:37:19 10° SW 10:42:34 21° S 10:47:35 10° SE daylight
13 May - 12:29:52 10° SW 12:35:09 23° S 12:40:10 10° SE daylight
13 May - 14:24:08 10° SW 14:27:30 14° SSW 14:30:47 10° S daylight
14 May - 09:36:44 10° SSW 09:41:43 19° SSE 09:46:30 10° SE daylight
14 May - 11:28:44 10° SW 11:34:19 24° S 11:39:37 10° SE daylight
14 May - 13:22:19 10° SW 13:26:48 18° SSW 13:31:06 10° SSE daylight
15 May - 08:36:29 10° SSW 08:40:51 16° SSE 08:45:06 10° SE daylight
15 May - 10:27:45 10° SW 10:33:27 24° S 10:38:52 10° SE daylight
15 May - 12:20:50 10° WSW 12:26:01 21° S 12:30:58 10° SE daylight
15 May - 14:16:38 10° SW 14:18:19 11° SSW 14:19:58 10° S daylight
16 May - 07:36:53 10° S 07:39:59 13° SSE 07:43:03 10° SE daylight
16 May - 09:26:55 10° SW 09:32:33 22° S 09:37:57 10° ESE daylight
16 May - 11:19:32 10° SW 11:25:11 24° S 11:30:35 10° SE daylight
16 May - 13:13:50 10° SW 13:17:37 15° SSW 13:21:18 10° SSE daylight
17 May - 08:26:19 10° SSW 08:31:38 20° SSE 08:36:48 10° ESE daylight
17 May - 10:18:23 10° SW 10:24:18 25° S 10:29:58 10° SE daylight
17 May - 12:12:00 10° WSW 12:16:51 19° SSW 12:21:32 10° SSE daylight
18 May - 07:26:04 10° SSW 07:30:44 17° SSE 07:35:19 10° SE daylight
18 May - 09:17:23 10° SW 09:23:23 25° S 09:29:09 10° SE daylight
18 May - 11:10:29 10° WSW 11:16:02 22° S 11:21:21 10° SE daylight
18 May - 13:06:02 10° SW 13:08:23 12° SSW 13:10:42 10° S daylight
19 May - 06:26:26 10° S 06:29:52 13° SSE 06:33:16 10° SE daylight
19 May - 08:16:34 10° SW 08:22:26 23° S 08:28:09 10° ESE daylight
19 May - 10:09:11 10° WSW 10:15:09 25° S 10:20:53 10° SE daylight
19 May - 12:03:27 10° SW 12:07:39 16° SSW 12:11:44 10° SSE daylight
20 May - 07:16:00 10° SSW 07:21:29 21° SSE 07:26:54 10° ESE daylight
20 May - 09:08:03 10° SW 09:14:13 26° S 09:20:10 10° SE daylight
20 May - 11:01:38 10° WSW 11:06:50 20° SSW 11:11:52 10° SSE daylight
21 May - 06:15:48 10° SSW 06:20:35 17° SSE 06:25:20 10° ESE daylight
21 May - 08:07:05 10° SW 08:13:14 26° S 08:19:16 10° ESE daylight
21 May - 10:00:09 10° WSW 10:05:57 23° S 10:11:35 10° SE daylight
21 May - 11:55:30 10° SW 11:58:23 12° SSW 12:01:13 10° S daylight
22 May - 05:16:14 10° S 05:19:43 14° SSE 05:23:12 10° SE daylight
22 May - 07:06:20 10° SW 07:12:16 24° S 07:18:10 10° ESE daylight
22 May - 08:58:53 10° WSW 09:05:01 26° S 09:11:01 10° SE daylight
22 May - 10:53:04 10° WSW 10:57:36 17° SSW 11:02:01 10° SSE daylight
